Погода в Нариманове

Россия / Астраханская область     46°41′25″N   47°51′13″E
темп.,
°C
ветер,
м/с
пор.,
м/с
влажн.,
%
обл.,
%
осадки,
мм/ч
давл.,
гПа
погр.,
м
13 апреля, вт
вт1301:00+17вюв71719100 0.0 1025523
04:00+14в71529100 0.0 1025346
07:00+13вюв6143822 0.0 1025290
10:00+20вюв913219 0.0 1026857
13:00+22вюв1112134 0.0 10251424
16:00+22вюв1012156 0.0 10241519
19:00+19вюв7112199 0.0 1023495
22:00+15в482829 0.0 1023144
14 апреля, ср
ср1401:00+14в51429100 0.0 1021313
04:00+14в61532100 0.0 1020286
07:00+13в71341100 0.0 1019292
10:00+19вюв81129100 0.0 1019636
13:00+23вюв89197 0.0 10181732
16:00+23в781762 0.0 10161548
19:00+20вюв4725100 0.0 1016189
22:00+17ююв3330100 0.0 101727
15 апреля, чт
чт1501:00+17ссв5830100 0.0 1014119
04:00+16в4833100 0.0 1014184
07:00+15ююв2244100 0.0 101442
10:00+19в2236100 0.0 1014424
13:00+22в1130100 0.0 10141831
16:00+20ссз564190 0.1 1014660
19:00+19ссз353936 0.0 1014200
22:00
16 апреля, пт
пт1601:00+14сз47615 0.0 1014121
04:00+13сз47645 0.0 1015118
07:00+13сз48705 0.0 1015197
10:00+19сз564312 0.0 1016978
13:00+22сз56316 0.0 10161685
16:00+22ссз5630100 0.0 10161842
19:00+20с353699 0.0 1016176
22:00+16ссз334988 0.0 101526
17 апреля, сб
сб1701:00+15с224799 0.0 101714
04:00+14вюв2250100 0.0 101711
07:00+14с3554100 0.0 1017120
10:00+19всв4442100 0.0 1017647
13:00+21юз2333100 0.0 10172145
16:00+14сз101169100 0.2 1019500
19:00+13ссз5570100 0.4 1019554
22:00+12сз347274 0.4 1019115